N1ICS-1 Weather Reports


Display with metric or nautical units.
time (UTC)temp
F
wind
direction
speed
MPH
gust
MPH
rain 1hr
in
rain 24hr
in
rain mn
in
humidity
%
barometer
mb
20260503050002 36 304 0.0 0.0 0.00 0.00 0.00 91 1019.0
20260503045501 36 264 0.0 2.0 0.00 0.00 0.00 90 1019.0
20260503045002 36 269 2.0 2.0 0.00 0.00 0.00 89 1019.0
20260503044502 36 269 0.0 2.0 0.00 0.00 0.00 89 1019.0
20260503044002 36 264 2.0 3.0 0.00 0.00 0.00 89 1019.0
20260503043501 36 275 2.0 3.0 0.00 0.00 0.00 87 1019.0
20260503043001 37 260 2.0 2.0 0.00 0.00 0.00 86 1019.1
20260503042502 36 263 2.0 3.0 0.00 0.00 0.00 87 1019.0
20260503042002 36 266 2.0 2.0 0.00 0.00 0.00 86 1018.9
20260503041501 37 281 2.0 3.0 0.00 0.00 0.00 86 1019.1
20260503041002 36 263 2.0 3.0 0.00 0.00 0.00 85 1019.0
20260503040501 36 273 2.0 2.0 0.00 0.00 0.00 87 1019.1
20260503040002 36 259 2.0 3.0 0.00 0.00 0.00 87 1019.1
20260503035502 37 280 2.0 3.0 0.00 0.00 0.00 86 1019.1
20260503035001 37 280 3.0 4.0 0.00 0.00 0.00 86 1019.1
20260503034502 37 271 2.0 3.0 0.00 0.00 0.00 87 1018.9
20260503034001 36 233 2.0 2.0 0.00 0.00 0.00 88 1019.0
20260503033501 37 220 2.0 2.0 0.00 0.00 0.00 87 1019.1
20260503033002 37 227 0.0 2.0 0.00 0.00 0.00 86 1019.0
20260503032502 37 269 0.0 2.0 0.00 0.00 0.00 85 1019.0
20260503032001 37 269 0.0 2.0 0.00 0.00 0.00 84 1018.9
20260503031502 38 235 0.0 2.0 0.00 0.00 0.00 83 1019.0
20260503031001 38 256 0.0 2.0 0.00 0.00 0.00 83 1019.1
20260503030502 38 277 2.0 2.0 0.00 0.00 0.00 82 1019.0
20260503030003 38 287 2.0 3.0 0.00 0.00 0.00 82 1019.0
20260503025501 38 304 0.0 0.0 0.00 0.00 0.00 84 1019.0
20260503025002 38 304 0.0 0.0 0.00 0.00 0.00 84 1019.2
20260503024501 38 304 0.0 0.0 0.00 0.00 0.00 84 1019.0
20260503024001 39 256 0.0 0.0 0.00 0.00 0.00 83 1019.2
20260503023502 39 304 0.0 2.0 0.00 0.00 0.00 82 1019.0
20260503023001 39 308 2.0 3.0 0.00 0.00 0.00 82 1018.9
20260503022501 39 311 0.0 3.0 0.00 0.00 0.00 81 1019.1
20260503022002 40 274 2.0 4.0 0.00 0.00 0.00 81 1019.2
20260503021501 40 187 2.0 2.0 0.00 0.00 0.00 81 1018.9
20260503021002 40 304 2.0 4.0 0.00 0.00 0.00 81 1019.3
20260503020502 40 185 2.0 3.0 0.00 0.00 0.00 83 1019.1
20260503020002 40 203 2.0 3.0 0.00 0.00 0.00 82 1018.9
20260503015501 40 216 3.0 5.0 0.00 0.00 0.00 83 1018.8
20260503015002 40 267 3.0 3.0 0.00 0.00 0.00 85 1018.9
20260503014502 40 256 3.0 4.0 0.00 0.00 0.00 85 1018.8
20260503014001 40 251 3.0 4.0 0.00 0.00 0.00 85 1018.9
20260503013502 40 284 3.0 4.0 0.00 0.00 0.00 86 1018.9
20260503013001 40 272 3.0 3.0 0.00 0.00 0.00 86 1018.9
20260503012501 40 267 2.0 3.0 0.00 0.00 0.00 87 1018.7
20260503012002 41 277 2.0 2.0 0.00 0.00 0.00 87 1018.9
20260503011502 41 258 2.0 3.0 0.00 0.00 0.00 87 1018.8
20260503011002 41 256 2.0 3.0 0.00 0.00 0.00 86 1018.8
20260503010502 42 256 3.0 3.0 0.00 0.00 0.00 85 1018.6
20260503010003 42 278 2.0 2.0 0.00 0.00 0.00 84 1018.7
20260503005502 42 253 2.0 3.0 0.00 0.00 0.00 83 1018.8
20260503005001 42 271 2.0 2.0 0.00 0.00 0.00 82 1018.8
20260503004501 42 164 0.0 3.0 0.00 0.00 0.00 80 1018.8
20260503004002 43 212 2.0 3.0 0.00 0.00 0.00 77 1018.7
20260503003502 44 234 3.0 4.0 0.00 0.00 0.00 74 1018.7
20260503003002 45 221 3.0 4.0 0.00 0.00 0.00 72 1018.5
20260503002501 46 222 4.0 4.0 0.00 0.00 0.00 71 1018.6
20260503002002 47 244 4.0 5.0 0.00 0.00 0.00 68 1018.5
20260503001502 47 255 4.0 6.0 0.00 0.00 0.00 66 1018.4
20260503001002 46 250 5.0 7.0 0.00 0.00 0.00 62 1018.4
20260503000502 47 257 6.0 7.0 0.00 0.00 0.00 62 1018.5
20260503000002 47 265 8.0 9.0 0.00 0.00 0.00 59 1018.5
20260502235502 48 297 6.0 8.0 0.00 0.00 0.00 56 1018.5
20260502235001 48 278 4.0 6.0 0.00 0.00 0.00 56 1018.5
20260502234502 48 336 3.0 8.0 0.00 0.00 0.00 51 1018.7
20260502234002 48 273 7.0 9.0 0.00 0.00 0.00 51 1018.5
20260502233501 49 288 8.0 13.0 0.00 0.00 0.00 48 1018.5
20260502233002 49 289 9.0 13.0 0.00 0.00 0.00 51 1018.7
20260502232501 49 279 9.0 13.0 0.00 0.00 0.00 51 1018.5
20260502232002 49 263 6.0 11.0 0.00 0.00 0.00 50 1018.5
20260502231502 49 287 9.0 13.0 0.00 0.00 0.00 49 1018.5
20260502231002 50 282 8.0 11.0 0.00 0.00 0.00 50 1018.6
20260502230502 50 289 8.0 13.0 0.00 0.00 0.00 51 1018.8
20260502230001 49 293 8.0 13.0 0.00 0.00 0.00 49 1018.6
20260502225502 49 269 4.0 9.0 0.00 0.00 0.00 50 1018.7
20260502225002 50 272 9.0 12.0 0.00 0.00 0.00 50 1018.7
20260502224502 49 352 4.0 9.0 0.00 0.00 0.00 50 1018.8
20260502224001 48 317 5.0 10.0 0.00 0.00 0.00 50 1018.9
20260502223502 48 276 4.0 11.0 0.00 0.00 0.00 53 1018.7
20260502223002 50 344 6.0 11.0 0.00 0.00 0.00 51 1018.8
20260502222501 50 354 3.0 6.0 0.00 0.00 0.00 47 1018.7
20260502222002 50 335 4.0 13.0 0.00 0.00 0.00 48 1018.8
20260502221502 50 0 5.0 9.0 0.00 0.00 0.00 51 1018.7
20260502221002 48 2 6.0 9.0 0.00 0.00 0.00 48 1018.9
20260502220502 48 267 11.0 16.0 0.00 0.00 0.00 51 1018.7
20260502220003 49 263 6.0 13.0 0.00 0.00 0.00 53 1018.8
20260502215501 49 320 4.0 8.0 0.00 0.00 0.00 51 1018.9
20260502215002 49 23 6.0 8.0 0.00 0.00 0.00 52 1019.0
20260502214502 48 5 3.0 9.0 0.00 0.00 0.00 53 1018.8
20260502214001 48 316 6.0 13.0 0.00 0.00 0.00 50 1019.0
20260502213502 49 338 6.0 13.0 0.00 0.00 0.00 48 1018.9
20260502213002 48 333 4.0 8.0 0.00 0.00 0.00 51 1018.9
20260502212501 47 329 3.0 12.0 0.00 0.00 0.00 51 1018.8
20260502212002 48 307 7.0 11.0 0.00 0.00 0.00 49 1018.9
20260502211502 48 353 5.0 11.0 0.00 0.00 0.00 49 1018.9
20260502211001 48 311 6.0 15.0 0.00 0.00 0.00 48 1019.0
20260502210502 48 356 11.0 18.0 0.00 0.00 0.00 49 1018.8
20260502210002 48 96 5.0 9.0 0.00 0.00 0.00 50 1018.9
20260502205502 47 294 4.0 15.0 0.00 0.00 0.00 50 1019.1
20260502205001 48 320 4.0 9.0 0.00 0.00 0.00 52 1019.1
20260502204502 48 232 6.0 20.0 0.00 0.00 0.00 54 1018.9
20260502204001 48 311 9.0 13.0 0.00 0.00 0.00 53 1018.9
20260502203502 48 350 6.0 12.0 0.00 0.00 0.00 50 1018.9
20260502203002 48 26 3.0 10.0 0.00 0.00 0.00 52 1019.1
20260502202501 47 29 5.0 7.0 0.00 0.00 0.00 51 1019.0
20260502202001 47 327 2.0 12.0 0.00 0.00 0.00 51 1019.2
20260502201501 48 14 10.0 13.0 0.00 0.00 0.00 52 1019.2
20260502201002 47 330 10.0 12.0 0.00 0.00 0.00 50 1019.2
20260502200502 47 295 3.0 14.0 0.00 0.00 0.00 50 1019.2
20260502200002 48 288 4.0 13.0 0.00 0.00 0.00 54 1019.3
20260502195502 47 0 4.0 13.0 0.00 0.00 0.00 54 1019.1
20260502195002 48 7 7.0 13.0 0.00 0.00 0.00 53 1019.3
20260502194502 47 342 12.0 15.0 0.00 0.00 0.00 51 1019.3
20260502194001 48 305 10.0 19.0 0.00 0.00 0.00 55 1019.4
20260502193502 48 265 17.0 18.0 0.00 0.00 0.00 53 1019.4
20260502193002 47 294 8.0 19.0 0.00 0.00 0.00 51 1019.4
20260502192501 48 313 5.0 15.0 0.00 0.00 0.00 51 1019.4
20260502192002 47 7 4.0 19.0 0.00 0.00 0.00 51 1019.6
20260502191502 48 300 9.0 17.0 0.00 0.00 0.00 54 1019.4
20260502191002 49 342 11.0 18.0 0.00 0.00 0.00 51 1019.4
20260502190502 49 301 7.0 16.0 0.00 0.00 0.00 50 1019.6
20260502190001 47 301 10.0 16.0 0.00 0.00 0.00 52 1019.6
20260502185502 47 269 10.0 18.0 0.00 0.00 0.00 56 1019.5
20260502185001 48 3 2.0 11.0 0.00 0.00 0.00 48 1019.5
20260502184502 48 47 2.0 15.0 0.00 0.00 0.00 50 1019.6
20260502184002 48 327 6.0 13.0 0.00 0.00 0.00 57 1019.6
20260502183502 47 295 6.0 11.0 0.00 0.00 0.00 54 1019.8
20260502183002 48 311 6.0 17.0 0.00 0.00 0.00 53 1019.6
20260502182502 47 281 10.0 12.0 0.00 0.00 0.00 56 1019.6
20260502182002 48 3 8.0 13.0 0.00 0.00 0.00 52 1020.0
20260502181501 46 353 10.0 14.0 0.00 0.00 0.00 52 1019.8
20260502181002 46 355 12.0 15.0 0.00 0.00 0.00 53 1019.9
20260502180502 46 280 3.0 13.0 0.00 0.00 0.00 56 1020.0
20260502170501 45 321 6.0 13.0 0.00 0.00 0.00 54 1020.3
20260502164002 46 263 7.0 15.0 0.00 0.00 0.00 55 1020.4
20260502163502 47 283 8.0 18.0 0.00 0.00 0.00 51 1020.5
20260502163002 47 295 5.0 13.0 0.00 0.00 0.00 59 1020.5
20260502162501 46 328 2.0 9.0 0.00 0.00 0.00 56 1020.5
20260502162002 45 291 11.0 15.0 0.00 0.00 0.00 53 1020.3
20260502161501 46 38 4.0 19.0 0.00 0.00 0.00 59 1020.7
20260502161002 46 303 8.0 11.0 0.00 0.00 0.00 58 1020.6
20260502160502 47 316 10.0 11.0 0.00 0.00 0.00 61 1020.6
20260502152002 44 264 9.0 13.0 0.00 0.00 0.00 62 1020.5
20260502151502 45 28 6.0 15.0 0.00 0.00 0.00 63 1020.6
20260502151002 44 345 5.0 13.0 0.00 0.00 0.00 67 1020.4
20260502150501 45 16 7.0 10.0 0.00 0.00 0.00 65 1020.3
20260502130501 40 0 7.0 13.0 0.00 0.00 0.00 78 1020.1
20260502123502 38 344 5.0 9.0 0.00 0.00 0.00 78 1020.0
20260502123002 38 341 4.0 10.0 0.00 0.00 0.00 80 1019.8
20260502122502 38 319 6.0 13.0 0.00 0.00 0.00 81 1019.7
20260502122001 37 315 5.0 12.0 0.00 0.00 0.00 81 1019.7
20260502121502 37 309 6.0 15.0 0.00 0.00 0.00 82 1019.8
20260502121002 37 320 4.0 8.0 0.00 0.00 0.00 81 1019.7
20260502120502 36 0 2.0 10.0 0.00 0.00 0.00 82 1019.6
20260502115501 35 314 4.0 12.0 0.00 0.00 0.00 84 1019.7
20260502115002 35 302 4.0 6.0 0.00 0.00 0.00 84 1019.7
20260502114501 35 306 2.0 4.0 0.00 0.00 0.00 85 1019.8
20260502114001 34 299 5.0 7.0 0.00 0.00 0.00 87 1019.8
20260502113502 33 268 3.0 8.0 0.00 0.00 0.00 88 1019.6
20260502113001 32 288 2.0 4.0 0.00 0.00 0.00 90 1019.6
20260502112501 32 287 2.0 4.0 0.00 0.00 0.00 91 1019.6
20260502112002 32 259 0.0 4.0 0.00 0.00 0.00 91 1019.5
20260502111502 32 288 4.0 4.0 0.00 0.00 0.00 91 1019.6
20260502111002 32 275 2.0 4.0 0.00 0.00 0.00 90 1019.6
20260502110501 32 267 2.0 4.0 0.00 0.00 0.00 90 1019.5
20260502110002 32 301 2.0 4.0 0.00 0.00 0.00 90 1019.4
20260502105502 31 295 0.0 3.0 0.00 0.00 0.00 90 1019.4
20260502105001 31 19 0.0 4.0 0.00 0.00 0.00 90 1019.5
20260502104502 31 310 3.0 3.0 0.00 0.00 0.00 90 1019.4
20260502104002 31 296 2.0 4.0 0.00 0.00 0.00 90 1019.3
20260502103501 31 311 0.0 4.0 0.00 0.00 0.00 89 1019.3
20260502103001 32 293 2.0 5.0 0.00 0.00 0.00 89 1019.2
20260502102502 32 12 3.0 5.0 0.00 0.00 0.00 90 1019.3
20260502102002 31 321 2.0 4.0 0.00 0.00 0.00 89 1019.3
20260502101501 32 287 2.0 6.0 0.00 0.00 0.00 89 1019.4
20260502101002 32 0 2.0 4.0 0.00 0.00 0.00 89 1019.4
20260502100501 32 336 0.0 3.0 0.00 0.00 0.00 89 1019.5
20260502091502 32 11 0.0 5.0 0.00 0.00 0.00 87 1019.0
20260502091002 32 183 2.0 3.0 0.00 0.00 0.00 87 1019.1
20260502090501 32 324 0.0 5.0 0.00 0.00 0.00 87 1019.1
20260502071502 34 300 3.0 5.0 0.00 0.00 0.00 82 1019.0
20260502071002 34 195 2.0 4.0 0.00 0.00 0.00 83 1019.0
20260502070502 35 336 3.0 6.0 0.00 0.00 0.00 81 1019.1
20260502070002 35 341 3.0 6.0 0.00 0.00 0.00 82 1019.1
20260502065501 35 354 2.0 4.0 0.00 0.00 0.00 82 1019.1
20260502065002 35 2 3.0 6.0 0.00 0.00 0.00 82 1019.0
20260502064502 36 9 3.0 7.0 0.00 0.00 0.00 82 1019.1
20260502064002 36 337 2.0 5.0 0.00 0.00 0.00 83 1019.2
20260502063501 36 17 6.0 7.0 0.00 0.00 0.00 83 1019.1
20260502063001 35 39 2.0 3.0 0.00 0.00 0.00 84 1018.9
20260502062502 35 289 2.0 4.0 0.00 0.00 0.00 84 1019.2
20260502062001 35 289 4.0 5.0 0.00 0.00 0.00 85 1019.2
20260502061501 35 17 0.0 4.0 0.00 0.00 0.00 84 1019.3
20260502061002 36 19 0.0 5.0 0.00 0.00 0.00 84 1019.4
20260502060502 35 63 0.0 2.0 0.00 0.00 0.00 84 1019.3
20260502060002 35 358 2.0 3.0 0.00 0.00 0.00 86 1019.2
20260502055502 35 273 2.0 4.0 0.00 0.00 0.00 86 1019.2
20260502055002 35 185 0.0 2.0 0.00 0.00 0.00 85 1019.2
20260502054502 36 269 0.0 2.0 0.00 0.00 0.00 84 1019.2
20260502054001 36 89 0.0 2.0 0.00 0.00 0.00 83 1019.2
20260502053502 36 287 4.0 4.0 0.00 0.00 0.00 83 1019.3
20260502053001 36 310 0.0 4.0 0.00 0.00 0.00 82 1019.1
20260502052502 37 350 3.0 6.0 0.00 0.00 0.00 82 1019.1
20260502052001 37 3 3.0 5.0 0.00 0.00 0.00 82 1019.1
20260502051502 37 352 2.0 5.0 0.00 0.00 0.00 82 1019.4
20260502051002 36 313 2.0 4.0 0.00 0.00 0.00 83 1019.1
20260502050501 37 275 0.0 4.0 0.00 0.00 0.00 83 1019.2